STARLINK-34352

Satellite information

Favourite Embed

Satellite Type and Status

PAYLOADIN ORBIT

Key statistics

Satellite STARLINK-34352 at a glance.

Uptime

192

Days in orbit

Revolutions

≈ 15.3

Per day

Orbit

LEO

Low Earth Orbit

Inclination

53.2

Latest

Satellite identification and parameters

Extended collection of information and parameters for STARLINK-34352.

Object identification

Identified? True

Debris? False

Object name: STARLINK-34352

International designator: 2025-120B

Object number (NORAD): 64257

Object ID (CCSDS): 64257

Country: UNITED STATES OF AMERICA (US)

Current information (Y/N): Y

RCS size: LARGE

Orbital parameters

Period: 94.106 minutes

Inclination: 53.1586 deg

SMA: 6853.39 km

Apoapsis: 477.049 km

Periapsis: 473.462 km

RAAN: 163.0244 deg

Eccentricy: 0.00026167

Argument of periapsis: 70.0028 deg

Mean anomaly: 290.1255 deg

Mean motion: 15.30187194 rev/day

Mean motion (dot): 0.0006235 rev/day2

B* drag term: 0.0021003838 1/REarth

Two-line elements (TLE)

Creation date: Dec. 12, 2025, 10:14 a.m.

Reference frame: TEME

Reference center: EARTH

Epoch: Dec. 12, 2025, 5:17 a.m. UTC

TLE line 0: 0 STARLINK-34352

TLE line 1: 1 64257U 25120B 25346.22071978 .00062350 00000-0 21004-2 0 9995

TLE line 2: 2 64257 53.1586 163.0244 0002617 70.0028 290.1255 15.30187194 30474

Live tracking on map

Real-time ground track for satellite STARLINK-34352.

In-orbit conjunctions

There are no conjunctions computed for STARLINK-34352, at the moment. Check back to stay up to date, as we update our databases every day.

Go to all conjunctions

Associated space launch

A batch of 27 satellites for the Starlink mega-constellation - SpaceX's project for space-based Internet communication system.

STARLINK-34352 was lifted into orbit during the mission ‘Falcon 9 Block 5 | Starlink Group 11-22’, on board a Falcon 9 space rocket.

The launch took place on June 4, 2025, 11:40 p.m. from Space Launch Complex 4E.

For more information about the launch, click the button.

Launch to space Falcon 9 Block 5 | Starlink Group 11-22
Falcon 9 Block 5 | Starlink Group 11-22

Agency: SpaceX

Status: Launch Successful

Launch date: June 4, 2025, 11:40 p.m. UTC

Rocket: Falcon 9

Launch pad: Space Launch Complex 4E

Location: Vandenberg SFB, CA, USA

...

Latest news about this satellite

News about space launch
Live coverage: SpaceX to launch 50th Starlink mission of 2025 on Wednesday afternoon Falcon 9 flight from California

The Starlink 11-22 mission is SpaceX’s 68th launch of the year. Teams are targeting liftoff from pad 4 East at Vandenberg Space Force Base at 4:28 p.m. PDT (7:28 p.m. EDT, 2338 UTC).

News about space launch
Launch Roundup: Falcon 9 to launch crewed mission, Rocket Lab to launch 65th Electron

SpaceX continues to dominate the launch manifest with five missions this week, including a crewed… The post Launch Roundup: Falcon 9 to launch crewed mission, Rocket Lab to launch 65th Electron appeared first on NASASpaceFlight.com.


Newsletter sign-up

Weekly statistics, charts and insights to help you stay on top of the space industry.